Sparta, IL

1:17 AM CST on November 20, 2019 (GMT -0600)
Sparta Community-Hunter

Weather History for KSAR - September, 2019

Change the Weather History Date:

Thursday, September 26, 2019

  Actual Average (KBLV) Record (KBLV)
Temperature  
Mean Temperature 66 °F -  
Max Temperature 74 °F 77 °F 93 °F (1998)
Min Temperature 57 °F 51 °F 36 °F (1989)
Growing Degree Days 16 (Base 50)    
Moisture  
Dew Point 54 °F    
Average Humidity 65    
Maximum Humidity 96    
Minimum Humidity 37    
Precipitation  
Precipitation 0.00 in - - ()
Sea Level Pressure  
Sea Level Pressure 29.99 in    
Wind  
Wind Speed 5 mph (NNE)    
Max Wind Speed 10 mph    
Max Gust Speed -    
Visibility 8 miles    
Events      
Averages and records for this station are not official NWS values.
T = Trace of Precipitation, MM = Missing Value Source: NWS Daily Summary

Daily Weather History Graph

Daily Weather History Graph

Search for Another Location

Airport or City:

Astronomy

Sep. 26, 2019 Rise Set
Actual Time 6:49 AM CDT 6:49 PM CDT
Civil Twilight 6:23 AM CDT 7:16 PM CDT
Nautical Twilight 5:52 AM CDT 7:46 PM CDT
Astronomical Twilight 5:21 AM CDT 8:17 PM CDT
Moon 4:00 AM CDT (9/26) 5:59 PM CDT (9/26)
Length of Visible Light 12h 52m
Length of Day
11h 59m
Waning Crescent, 6% of the Moon is Illuminated
Sep 26
Waning Crescent
Sep 28
New
Oct 5
First Quarter
Oct 13
Full
Oct 21
Last Quarter

Hourly Weather History & Observations

Time (CDT) Temp. Dew Point Humidity Pressure Visibility Wind Dir Wind Speed Gust Speed Precip Events Conditions
12:15 AM 72.0 °F 70.9 °F 96% 29.89 in 10.0 mi Calm Calm - N/A   Overcast
12:35 AM 72.5 °F 70.9 °F 95% 29.89 in 10.0 mi Calm Calm - N/A   Overcast
12:55 AM 71.8 °F 67.3 °F 86% 29.91 in 10.0 mi North 10.4 mph - N/A   Overcast
1:15 AM 70.7 °F 63.5 °F 78% 29.93 in 10.0 mi North 6.9 mph - N/A   Overcast
1:35 AM 69.8 °F 56.8 °F 63% 29.93 in 10.0 mi North 9.2 mph - N/A   Scattered Clouds
1:55 AM 69.6 °F 56.5 °F 63% 29.93 in 10.0 mi North 8.1 mph - N/A   Mostly Cloudy
2:15 AM 68.2 °F 55.8 °F 64% 29.93 in 10.0 mi NNW 8.1 mph - N/A   Scattered Clouds
2:35 AM 67.3 °F 55.8 °F 66% 29.93 in 10.0 mi North 5.8 mph - N/A   Scattered Clouds
2:55 AM 66.9 °F 54.7 °F 65% 29.92 in 10.0 mi North 6.9 mph - N/A   Scattered Clouds
3:15 AM 66.6 °F 55.6 °F 68% 29.93 in 10.0 mi NNW 6.9 mph - N/A   Scattered Clouds
3:35 AM 66.4 °F 54.0 °F 64% 29.94 in 10.0 mi North 8.1 mph - N/A   Overcast
4:15 AM 65.7 °F 53.1 °F 64% 29.96 in 10.0 mi North 4.6 mph - N/A   Overcast
4:35 AM 65.5 °F 52.5 °F 63% 29.97 in 10.0 mi North 6.9 mph - N/A   Overcast
4:55 AM 65.3 °F 52.2 °F 62% 29.98 in 10.0 mi North 10.4 mph - N/A   Overcast
5:15 AM 64.4 °F 53.2 °F 67% 29.98 in 10.0 mi North 6.9 mph - N/A   Overcast
5:35 AM 64.0 °F 53.6 °F 69% 29.97 in 10.0 mi NNE 5.8 mph - N/A   Overcast
5:55 AM 63.7 °F 53.8 °F 70% 29.99 in 10.0 mi North 6.9 mph - N/A   Overcast
6:15 AM 63.0 °F 54.3 °F 73% 29.99 in 10.0 mi North 6.9 mph - N/A   Overcast
6:35 AM 62.4 °F 54.9 °F 76% 30.00 in 10.0 mi NNW 5.8 mph - N/A   Overcast
6:55 AM 61.9 °F 54.9 °F 78% 30.01 in 10.0 mi NNW 5.8 mph - N/A   Mostly Cloudy
7:15 AM 61.7 °F 55.2 °F 79% 30.02 in 10.0 mi NW 4.6 mph - N/A   Mostly Cloudy
7:35 AM 61.7 °F 55.4 °F 80% 30.02 in 10.0 mi NNW 5.8 mph - N/A   Scattered Clouds
7:55 AM 61.7 °F 55.2 °F 79% 30.03 in 10.0 mi North 5.8 mph - N/A   Scattered Clouds
8:20 AM 61.7 °F 55.4 °F 80% 30.04 in 10.0 mi North 4.6 mph - N/A   Clear
8:35 AM 61.7 °F 55.4 °F 80% 30.05 in 10.0 mi North 4.6 mph - N/A   Clear
8:55 AM 62.1 °F 55.6 °F 79% 30.06 in 10.0 mi NNW 4.6 mph - N/A   Clear
9:15 AM 62.6 °F 55.0 °F 76% 30.08 in 10.0 mi NNW 4.6 mph - N/A   Clear
9:35 AM 63.3 °F 55.6 °F 76% 30.08 in 10.0 mi NNW 4.6 mph - N/A   Clear
9:55 AM 64.0 °F 54.7 °F 72% 30.08 in 10.0 mi North 4.6 mph - N/A   Clear
10:15 AM 64.4 °F 54.1 °F 69% 30.08 in 10.0 mi NNE 4.6 mph - N/A   Clear
10:35 AM 65.3 °F 53.8 °F 66% 30.09 in 10.0 mi NNE 5.8 mph - N/A   Clear
10:55 AM 66.2 °F 53.2 °F 63% 30.09 in 10.0 mi NNE 4.6 mph - N/A   Clear
11:15 AM 67.6 °F 52.7 °F 59% 30.07 in 10.0 mi NNE 6.9 mph - N/A   Clear
11:35 AM 68.9 °F 51.3 °F 53% 30.07 in 10.0 mi ENE 6.9 mph - N/A   Clear
11:55 AM 69.8 °F 51.8 °F 53% 30.06 in 10.0 mi NNE 8.1 mph - N/A   Clear
12:15 PM 69.6 °F 50.5 °F 51% 30.06 in 10.0 mi ENE 9.2 mph - N/A   Clear
12:35 PM 70.7 °F 51.8 °F 51% 30.06 in 10.0 mi ENE 5.8 mph - N/A   Clear
12:55 PM 71.2 °F 51.8 °F 50% 30.04 in 10.0 mi NE 5.8 mph - N/A   Clear
1:15 PM 71.8 °F 52.0 °F 50% 30.04 in 10.0 mi North 3.5 mph - N/A   Clear
1:35 PM 72.1 °F 51.4 °F 48% 30.02 in 10.0 mi NE 9.2 mph - N/A   Clear
1:55 PM 72.9 °F 51.3 °F 47% 30.01 in 10.0 mi ENE 4.6 mph - N/A   Clear
2:15 PM 73.0 °F 48.7 °F 42% 30.01 in 7.0 mi NE 6.9 mph - N/A   Clear
2:35 PM 73.4 °F 48.6 °F 41% 30.00 in 7.0 mi North 3.5 mph - N/A   Clear
2:55 PM 73.8 °F 47.5 °F 39% 30.00 in 7.0 mi NNE 4.6 mph - N/A   Clear
3:15 PM 73.9 °F 48.2 °F 40% 30.00 in 7.0 mi NNW 4.6 mph - N/A   Clear
3:35 PM 74.3 °F 47.1 °F 38% 29.99 in 10.0 mi Calm Calm - N/A   Clear
3:55 PM 73.8 °F 46.9 °F 38% 29.99 in 10.0 mi NNW 3.5 mph - N/A   Clear
4:15 PM 74.5 °F 48.2 °F 39% 29.99 in 7.0 mi NNE 5.8 mph - N/A   Clear
4:35 PM 74.1 °F 46.6 °F 37% 29.98 in 10.0 mi North 6.9 mph - N/A   Clear
4:55 PM 74.5 °F 47.8 °F 39% 29.98 in 10.0 mi ENE 4.6 mph - N/A   Clear
5:15 PM 74.3 °F 48.4 °F 40% 29.97 in 7.0 mi ENE 4.6 mph - N/A   Clear
5:35 PM 73.0 °F 47.8 °F 41% 29.97 in 4.0 mi East 3.5 mph - N/A   Haze
5:55 PM 72.1 °F 50.5 °F 46% 29.97 in 2.5 mi East 4.6 mph - N/A   Haze
6:15 PM 71.4 °F 51.4 °F 49% 29.97 in 7.0 mi Calm Calm - N/A   Clear
6:35 PM 70.3 °F 52.3 °F 53% 29.97 in 7.0 mi Calm Calm - N/A   Clear
6:55 PM 68.4 °F 52.0 °F 56% 29.97 in 3.0 mi Calm Calm - N/A   Haze
7:15 PM 67.5 °F 51.8 °F 57% 29.96 in 10.0 mi Calm Calm - N/A   Clear
7:35 PM 64.0 °F 53.6 °F 69% 29.96 in 7.0 mi Calm Calm - N/A   Clear
7:55 PM 62.1 °F 54.1 °F 75% 29.96 in 7.0 mi Calm Calm - N/A   Clear
8:15 PM 61.5 °F 54.5 °F 78% 29.97 in 5.0 mi Calm Calm - N/A   Haze
8:35 PM 60.6 °F 54.9 °F 81% 29.97 in 4.0 mi Calm Calm - N/A   Haze
8:55 PM 60.4 °F 54.3 °F 80% 29.97 in 5.0 mi Calm Calm - N/A   Haze
9:15 PM 59.4 °F 54.9 °F 85% 29.96 in 3.0 mi Calm Calm - N/A   Clear
9:35 PM 57.6 °F 55.0 °F 91% 29.96 in 5.0 mi Calm Calm - N/A   Clear
9:55 PM 57.4 °F 54.7 °F 91% 29.96 in 7.0 mi Calm Calm - N/A   Clear
10:15 PM 58.5 °F 54.1 °F 86% 29.96 in 5.0 mi ESE 3.5 mph - N/A   Haze
10:35 PM 57.2 °F 54.1 °F 89% 29.96 in 3.0 mi ESE 3.5 mph - N/A   Clear
10:55 PM 58.8 °F 53.8 °F 83% 29.95 in 7.0 mi ESE 5.8 mph - N/A   Clear
11:15 PM 59.0 °F 53.6 °F 82% 29.95 in 3.0 mi SE 4.6 mph - N/A   Haze
11:35 PM 59.9 °F 53.6 °F 80% 29.95 in 4.0 mi SE 4.6 mph - N/A   Haze
11:55 PM 59.5 °F 53.6 °F 81% 29.94 in 4.0 mi SE 4.6 mph - N/A   Haze